Location: Caltech
(34.1382°N, 118.1253°W)
Time: 06:43:53
(UTC-07:00)

FENGYUN 3A - Visible Passes

Search period start: 01 September 2014 00:00
Search period end: 11 September 2014 00:00
Orbit: 820 x 834 km, 98.5° (Epoch: 07 September)

Date Brightness Start Highest point End Pass type
(mag) Time Alt. Az. Time Alt. Az. Time Alt. Az.
01 Sep 4.1 21:19:17 44° ENE 21:19:17 44° ENE 21:24:00 10° N visible
01 Sep 6.0 23:00:48 17° WNW 23:00:48 17° WNW 23:02:59 10° NW visible
02 Sep 4.5 21:00:28 30° ENE 21:00:28 30° ENE 21:04:57 10° N visible
02 Sep 5.6 22:41:59 25° WNW 22:41:59 25° WNW 22:45:04 10° NW visible
03 Sep 5.0 20:41:38 20° ENE 20:41:49 20° ENE 20:45:38 10° NNE visible
03 Sep 5.0 22:23:09 35° WNW 22:23:09 35° WNW 22:26:47 10° NNW visible
04 Sep 5.4 20:22:49 13° ENE 20:23:20 14° ENE 20:25:51 10° NE visible
04 Sep 4.4 22:04:20 48° NW 22:04:20 48° NW 22:08:17 10° NNW visible
05 Sep 4.1 21:45:30 54° N 21:45:30 54° N 21:49:37 10° N visible
06 Sep 4.2 21:26:41 45° NNE 21:26:41 45° NNE 21:30:47 10° N visible
06 Sep 6.3 23:08:12 13° WNW 23:08:12 13° WNW 23:09:14 10° WNW visible
07 Sep 4.5 21:07:52 33° NE 21:07:52 33° NE 21:11:48 10° N visible
07 Sep 5.9 22:49:23 19° WNW 22:49:23 19° WNW 22:51:31 10° NW visible
08 Sep 4.9 20:49:03 23° ENE 20:49:03 23° ENE 20:52:36 10° NNE visible
08 Sep 5.5 22:30:34 26° NW 22:30:34 26° NW 22:33:21 10° NNW visible
09 Sep 5.3 20:30:14 16° ENE 20:30:14 16° ENE 20:33:03 10° NNE visible
09 Sep 5.0 22:11:45 35° NW 22:11:45 35° NW 22:14:55 10° NNW visible
10 Sep 5.7 20:11:25 10° ENE 20:11:30 10° ENE 20:12:03 10° NE visible
10 Sep 4.7 21:52:56 40° NNW 21:52:56 40° NNW 21:56:19 10° NNW visible
